Regional Weather Roundup
Issued by NWS Wakefield, VA

Home | Current Version | Previous Version | Graphics & Text | Print | Product List | Glossary On
Versions: 1 2 3 4 5 6 7 8 9 10 11 12 13 14 15 16 17 18 19 20 21 22 23 24 25 26 27 28 29 30 31 32 33 34 35 36 37 38 39 40 41 42 43 44 45 46 47 48 49 50
000
ASUS41 KAKQ 301410
RWRAKQ

REGIONAL WEATHER ROUNDUP
NATIONAL WEATHER SERVICE WAKEFIELD VA
1000 AM EDT WED JUL 30 2014

Note: "fair" indicates few or no clouds below 12,000 feet with no
significant weather and/or obstructions to visibility. * = Denotes
station may not report precipitation (e.g., rain,snow,etc.),
thunder or fog.

VAZ042-051-052>054-056-301500-
NORTHERN VIRGINIA

CITY           SKY/WX    TMP DP  RH WIND       PRES   REMARKS
WASH NATIONAL  SUNNY     73  52  47 N8        30.09S
DULLES         SUNNY     70  50  49 CALM      30.09S
FORT BELVOIR   SUNNY     71  54  54 VRB1      30.09S
QUANTICO       SUNNY     69  55  60 CALM      30.10S
FREDERICKSBRG* MOSUNNY   71  53  53 CALM      30.09S
STAFFORD*      SUNNY     70  53  55 N5        30.13S
WARRENTON      SUNNY     71  61  71 CALM      30.09S
CULPEPER*      SUNNY    N/A N/A N/A CALM      30.10S
MANASSAS*      SUNNY     66  57  72 CALM      30.09F
LEESBURG*      SUNNY     70  57  64 CALM      30.10S
WINCHESTER     SUNNY     68  54  60 S3        30.09S
$$

VAZ048-049-060>072-079>083-301500-
CENTRAL AND SOUTH CENTRAL VIRGINIA...AND NORTH CENTRAL NORTH CAROLINA

CITY           SKY/WX    TMP DP  RH WIND       PRES   REMARKS
RICHMOND       PTSUNNY   74  51  44 VRB5      30.10R
CHESTERFIELD*  MOSUNNY   72  46  40 NE3       30.12R
HANOVER        PTSUNNY   71  51  49 VRB5      30.11S
TAPPAHANNOCK*  CLOUDY    70  51  50 CALM      30.10R
CHARLOTTSVILLE SUNNY     68  56  65 CALM      30.10S
ORANGE*        SUNNY     70  52  52 SW3       30.11S
LOUISA*        MOSUNNY   70  55  60 CALM      30.09S
FARMVILLE*     SUNNY     72  52  49 CALM      30.09R
SOUTH HILL*    PTSUNNY   70  54  56 CALM      30.15S
ROANOKE RAPIDS NOT AVBL
RALEIGH        PTSUNNY   71  62  73 NE5       30.09R
$$

VAZ088>098-301500-
SOUTHEAST VIRGINIA

CITY           SKY/WX    TMP DP  RH WIND       PRES   REMARKS
NORFOLK        MOSUNNY   75  52  44 N7        30.08R
VIRGINIA BEACH MOSUNNY   76  55  48 N9        30.07R
NORFOLK NAVAL  PTSUNNY   76  55  48 N9G24     30.09R
WEST POINT*    SUNNY     73  53  49 NW3       30.11R
NEWPORT NEWS   PTSUNNY   76  54  46 N3        30.09R
LANGLEY AFB    CLOUDY    74  56  53 N5        30.08R
FORT EUSTIS    MOSUNNY   72  54  54 N6        30.07R
WILLIAMSBURG*  SUNNY     75  57  53 N3        30.10R
FRANKLIN*      CLOUDY    66  57  72 CALM      30.10R
WAKEFIELD      CLOUDY    71  56  58 CALM      30.10R
$$

VAZ020-022-025-037-045-301500-
WESTERN AND SOUTHWEST VIRGINIA

CITY           SKY/WX    TMP DP  RH WIND       PRES   REMARKS
STAUNTON*      SUNNY     65  54  68 CALM      30.13S
HOT SPRINGS VA MOSUNNY   53  49  84 W7        30.19S
LYNCHBURG      SUNNY     69  52  54 CALM      30.13R
DANVILLE       SUNNY     71  54  54 VRB3      30.11S
MARTINSVILLE   SUNNY     71  55  56 CALM      30.14F
ROANOKE        MOSUNNY   66  53  63 W3        30.15R
BLACKSBURG     SUNNY     64  57  77 CALM        N/A
DUBLIN*        SUNNY     64  55  73 CALM      30.17S
MARION*        SUNNY     62  53  71 SW3       30.19S
HILLSVILLE*    MOSUNNY   61  51  68 CALM      30.17S
RICHLANDS*     SUNNY     62  53  73 CALM      30.17S
WISE*          PTSUNNY   63  55  77 CALM      30.18S
ABINGDON*      SUNNY     63  55  74 CALM      30.17S
$$

MDZ021>025-VAZ099-100-301500-
SOUTHERN MARYLAND AND THE DELMARVA PENINSULA

CITY           SKY/WX    TMP DP  RH WIND       PRES   REMARKS
PATUXENT RIVER SUNNY     72  53  51 NW7       30.08R
BAY BRIDGE APT   N/A     70  52  52 N6        30.08S
LEONARDTOWN    SUNNY     70  52  52 W5        30.09S
DOVER          SUNNY     71  58  65 VRB3      30.05S
GEORGETOWN     SUNNY     73  57  57 E8        30.07S
EASTON         SUNNY     72  59  64 N5        30.11R
CAMBRIDGE      SUNNY     72  55  56 N5        30.07S
SALISBURY      SUNNY     75  54  47 N5        30.07R
OCEAN CITY     SUNNY     74  55  51 N7        30.06S
WALLOPS ISLAND SUNNY     73  55  53 VRB5      30.07S
ACCOMACK*        N/A     72  55  56 N7        30.07S
$$

NCZ012>017-030>032-301500-
EASTERN NORTH CAROLINA

CITY           SKY/WX    TMP DP  RH WIND       PRES   REMARKS
ELIZABETH CITY SUNNY     76  61  59 N9        30.08R
AHOSKIE*       CLOUDY    65  56  74 N7        30.09F
EDENTON*       MOSUNNY   74  63  68 NE5       30.07S
CURRITUCK*     SUNNY     77  58  51 N6        30.08S
KILL DEVIL HLS SUNNY     77  61  57 NE7       30.06R
MANTEO         NOT AVBL
CAPE HATTERAS  SUNNY     80  62  54 NE9       30.06R
GOLDSBORO      SUNNY     74  68  80 N5        30.05S
WASHINGTON     SUNNY     73  65  75 NE6       30.07S
GREENVILLE     SUNNY     73  64  73 NE7       30.09R
NEW BERN       SUNNY     79  64  60 NE6       30.07R
WILMINGTON     SUNNY     80  68  66 E6        30.03R
$$

VAZ048-301500-
ELSEWHERE

CITY           SKY/WX    TMP DP  RH WIND       PRES   REMARKS
HARRISBURG PA  SUNNY     67  55  65 NW6       30.06F
BALTIMORE      SUNNY     73  52  47 N3        30.07S
ANNAPOLIS      SUNNY     70  55  59 NW7       30.08S
ANDREWS AFB    SUNNY     71  52  52 N7        30.08S
WILMINGTON DE  SUNNY     72  53  51 NE5       30.07S
PHILADELPHIA   SUNNY     73  52  47 CALM      30.06S
WILDWOOD NJ*   SUNNY     72  52  49 N6        30.07S
ATLANTIC CITY  SUNNY     73  54  51 N8        30.05R
HENDERSON NC   PTSUNNY   67  58  72 NE6       30.10S
GREENSBORO     MOSUNNY   69  59  70 NE7       30.10S
ROCKY MOUNT    SUNNY     73  59  61 NE7G17    30.09R
FAYETTEVILLE   PTSUNNY   77  66  68 VRB7      30.05S
CHARLOTTE      SUNNY     71  57  61 N15G23    30.09S
$$

VAZ100-301500-
MARINE

STATION/POSITION TIME  TEMP    WIND        PRES    WAVE   SWELL
                       AIR SEA DIR/SP/G            HT/PER HT/PER
                 (UTC) (F)     (DEG/KT/KT) (MB)    (FT/S) (FT/S)
44066 TX TWR #4  1400   73 75  200/  2/  2 1016.4R   3/ 8   3/ 8
CAPE MAY NJ      1400   72 76  340/  6/ 10 1017.3R
LEWES DE         1400   69 71  360/  8/  9 1017.6S
15NM E FENWICK I 1400   70 73              1017.7R   2/ 8
OCEAN-CITY-INLET 1400   69 70  360/  6/  8 1017.5S
WACHAPREAGUE VA  1400   73 76  350/  3/  6 1018.0S
THOMAS POINT MD  1400   69 77  340/  5/  6 1019.1R
GOOSES REEF MD   1400   69     350/  8/ 12 1019.0R
COVE POINT MD    1400   68     360/  9/ 12 1018.3S
SOLOMONS ISLAND  1400      79                N/A
BISHOPS HEAD MD  1400   71 73   20/  5/  7 1017.8S
PINEY POINT MD   1400          330/  6/  7   N/A
POTOMAC MD       1400   70     340/  6/  8 1017.8R
CAMBRIDGE MD     1400   69 78  360/  4/  6 1018.0R
LEWISETTA VA     1400   70 76  330/  7/  9 1018.3S
RAPPAHANNOCK LGT 1400          340/  9/ 11 1018.8R
STINGRAY PT      1400   71     350/  6/  8 1019.1S
YORK RVR RNG VA  1400   71     360/ 10/ 12 1017.8R
YORKTOWN VA      1400   71 79  360/  7/  9 1018.3R
JAMESTOWN VA     1400   71      30/  2/  4   N/A
DOMINION TERM VA 1400   71      10/  5/  7 1018.7S
KIPTOPEKE VA     1400      80   10/  5/  9   N/A
CHES BAY BRIDGE  1400   72 77  350/  9/ 11 1017.8S
CAPE HENRY VA    1400   72     350/ 10/ 12 1017.1S
WILLOUBY STN VA  1400          360/  5/  6 1017.8S
S CRANEY ISL VA  1400          310/  5/  6 1018.5S
CAPE HENRY BUOY  1400      77                N/A     2/ 8
1ST LANDING BUOY 1400   73     350/  8/ 10 1018.0R
CAPE CHARLES BUO 1400      75                N/A     2/ 8
OFFSHORE WE BUOY 1400      78                N/A     2/ 8
64NM E OF VA BCH 1400   74 78  360/ 10/ 12 1017.6R   2/ 8   2/ 8
DUCK PIER NC     1400   74 75   10/  9/ 11 1017.3S
44056 DUCK FRF   1400                        N/A     2/ 8
OREGON INLET NC  1400   76 78   30/  9/ 12 1017.8S
HATTERAS NC      1400   77 79   50/ 10/ 14 1018.0S
DIAMOND SHLS NC  1400          VRB 14/ 17  1017.1R   4/ 8   2/ 8
CAPE LOOKOUT NC  1300   77      50/ 13/ 15 1016.9R
$$



USA.gov is the U.S. government's official web portal to all federal, state and local government web resources and services.